Location: Emblem
(62.4273°N, 6.4710°E)
Time: 02:11:55
(UTC+02:00)

UWE-3 - Pass Details

Date: 29 March 2023
Orbit: 577 x 669 km, 97.7° (Epoch: 06 June)

Event Time Altitude Azimuth Distance (km) Brightness Sun altitude
Rises 05:43:33 0° 17° (NNE) 3,028 ? -10.0°
Reaches altitude 10° 05:45:51 10° 12° (NNE) 2,102 ? -9.7°
Maximum altitude 05:50:18 52° 297° (WNW) 822 ? -9.3°
Drops below altitude 10° 05:54:38 10° 222° (SW) 2,042 ? -8.8°
Enters shadow 05:54:50 - 221° (SW) 2,119 ? -8.8°
